FW8084 Weather Reports


time (UTC)temp
C
wind
direction
speed
KPH
gust
KPH
rain 1hr
cm
rain 24hr
cm
rain mn
cm
humidity
%
barometer
mb
20260504041630 11 355 0.0 0.0 0.00 0.00 0.00 74 1020.4
20260504041127 11 342 1.6 3.2 0.00 0.00 0.00 74 1020.7
20260504040624 11 313 1.6 3.2 0.00 0.00 0.00 73 1020.4
20260504040121 12 56 0.0 1.6 0.00 0.00 0.00 72 1020.3
20260504035618 12 161 0.0 0.0 0.00 0.00 0.00 68 1020.1
20260504035114 12 170 0.0 0.0 0.00 0.00 0.00 69 1020.2
20260504034612 12 156 0.0 3.2 0.00 0.00 0.00 70 1020.2
20260504034109 12 175 0.0 0.0 0.00 0.00 0.00 69 1020.3
20260504033607 12 176 0.0 0.0 0.00 0.00 0.00 69 1020.0
20260504033104 12 177 3.2 4.8 0.00 0.00 0.00 67 1020.0
20260504032601 12 179 4.8 4.8 0.00 0.00 0.00 67 1020.1
20260504032058 11 177 4.8 4.8 0.00 0.00 0.00 70 1020.3
20260504031554 10 183 0.0 3.2 0.00 0.00 0.00 77 1020.3
20260504031050 11 322 0.0 0.0 0.00 0.00 0.00 77 1020.6
20260504030548 11 322 0.0 0.0 0.00 0.00 0.00 76 1020.8
20260504030044 11 322 0.0 0.0 0.00 0.00 0.00 77 1020.6
20260504025541 11 322 0.0 0.0 0.00 0.00 0.00 75 1020.7
20260504025038 11 322 0.0 0.0 0.00 0.00 0.00 74 1020.9
20260504024535 12 322 0.0 1.6 0.00 0.00 0.00 69 1020.8
20260504024032 12 321 0.0 0.0 0.00 0.00 0.00 71 1020.9
20260504023528 12 322 0.0 1.6 0.00 0.00 0.00 68 1021.0
20260504023024 13 321 0.0 0.0 0.00 0.00 0.00 64 1020.9
20260504022520 13 320 0.0 1.6 0.00 0.00 0.00 64 1020.6
20260504022017 15 171 0.0 1.6 0.00 0.00 0.00 57 1020.6
20260504021515 16 171 0.0 1.6 0.00 0.00 0.00 56 1020.8
20260504021012 16 171 0.0 4.8 0.00 0.00 0.00 48 1020.9
20260504020508 16 187 1.6 3.2 0.00 0.00 0.00 48 1020.6
20260504020005 16 295 0.0 0.0 0.00 0.00 0.00 50 1020.4
20260504015501 16 314 0.0 0.0 0.00 0.00 0.00 50 1020.4
20260504014957 16 314 0.0 1.6 0.00 0.00 0.00 49 1020.6
20260504014453 16 301 0.0 1.6 0.00 0.00 0.00 48 1020.4
20260504013950 17 191 0.0 0.0 0.00 0.00 0.00 48 1020.4
20260504013449 17 211 0.0 3.2 0.00 0.00 0.00 46 1020.4
20260504012944 17 181 3.2 8.0 0.00 0.00 0.00 46 1020.1
20260504012443 17 170 3.2 8.0 0.00 0.00 0.00 46 1019.8
20260504011940 17 178 4.8 12.9 0.00 0.00 0.00 46 1020.0
20260504011436 17 165 3.2 9.7 0.00 0.00 0.00 46 1020.1
20260504010932 17 168 4.8 11.3 0.00 0.00 0.00 46 1019.9
20260504010428 18 200 4.8 9.7 0.00 0.00 0.00 46 1019.8
20260504005925 18 146 4.8 9.7 0.00 0.00 0.00 45 1020.0
20260504005421 18 191 4.8 4.8 0.00 0.00 0.00 45 1019.8
20260504004919 18 186 3.2 8.0 0.00 0.00 0.00 45 1019.9
20260504004417 18 176 3.2 9.7 0.00 0.00 0.00 45 1019.9
20260504003913 18 176 4.8 9.7 0.00 0.00 0.00 44 1019.8
20260504003410 18 185 3.2 4.8 0.00 0.00 0.00 44 1019.9
20260504002906 18 194 4.8 9.7 0.00 0.00 0.00 42 1020.0
20260504002403 18 183 3.2 4.8 0.00 0.00 0.00 43 1020.0
20260504001901 18 174 4.8 4.8 0.00 0.00 0.00 42 1019.6
20260504001359 19 174 4.8 9.7 0.00 0.00 0.00 41 1020.1
20260504000855 19 171 3.2 4.8 0.00 0.00 0.00 42 1020.0
20260504000354 19 193 3.2 3.2 0.00 0.00 0.00 41 1019.9
20260503235849 19 169 4.8 9.7 0.00 0.00 0.00 40 1020.0
20260503235347 19 183 4.8 11.3 0.00 0.00 0.00 40 1020.1
20260503234844 19 190 4.8 9.7 0.00 0.00 0.00 40 1020.1
20260503234342 20 149 0.0 8.0 0.00 0.00 0.00 41 1020.2
20260503233839 20 204 4.8 8.0 0.00 0.00 0.00 40 1020.2
20260503233335 20 203 3.2 8.0 0.00 0.00 0.00 40 1020.3
20260503232832 20 178 6.4 9.7 0.00 0.00 0.00 41 1020.4
20260503232329 20 158 1.6 8.0 0.00 0.00 0.00 38 1020.4
20260503231827 20 191 0.0 8.0 0.00 0.00 0.00 38 1020.6
20260503231324 20 167 0.0 4.8 0.00 0.00 0.00 39 1020.7
20260503230820 20 178 4.8 11.3 0.00 0.00 0.00 37 1020.8
20260503230317 20 192 6.4 11.3 0.00 0.00 0.00 37 1020.8
20260503225815 20 316 1.6 4.8 0.00 0.00 0.00 37 1021.0
20260503225310 21 295 4.8 4.8 0.00 0.00 0.00 37 1021.1
20260503224807 20 283 4.8 8.0 0.00 0.00 0.00 37 1021.0
20260503224304 20 352 1.6 8.0 0.00 0.00 0.00 36 1021.0
20260503223802 20 149 3.2 8.0 0.00 0.00 0.00 38 1021.0
20260503223259 20 168 4.8 11.3 0.00 0.00 0.00 37 1021.1
20260503222755 20 167 3.2 11.3 0.00 0.00 0.00 37 1021.2
20260503222254 20 189 4.8 4.8 0.00 0.00 0.00 36 1021.3
20260503221751 20 155 3.2 9.7 0.00 0.00 0.00 37 1021.3
20260503221249 20 149 6.4 11.3 0.00 0.00 0.00 36 1021.1
20260503220745 20 205 4.8 11.3 0.00 0.00 0.00 37 1021.6
20260503220243 20 199 4.8 9.7 0.00 0.00 0.00 37 1021.5
20260503215739 20 178 4.8 8.0 0.00 0.00 0.00 37 1021.5
20260503215236 20 182 4.8 9.7 0.00 0.00 0.00 40 1021.7
20260503214734 20 186 1.6 9.7 0.00 0.00 0.00 38 1021.7
20260503214231 20 147 0.0 11.3 0.00 0.00 0.00 40 1021.8
20260503213729 20 153 1.6 4.8 0.00 0.00 0.00 39 1022.0
20260503213226 20 167 4.8 11.3 0.00 0.00 0.00 42 1022.0
20260503212722 20 157 6.4 11.3 0.00 0.00 0.00 38 1022.3
20260503212220 20 156 9.7 12.9 0.00 0.00 0.00 38 1022.2
20260503211718 20 214 3.2 8.0 0.00 0.00 0.00 38 1022.1
20260503211213 20 174 4.8 4.8 0.00 0.00 0.00 37 1022.4
20260503210710 20 208 4.8 9.7 0.00 0.00 0.00 38 1022.6
20260503210207 20 180 1.6 11.3 0.00 0.00 0.00 36 1022.4
20260503205702 20 2 1.6 4.8 0.00 0.00 0.00 37 1022.7
20260503205158 20 201 6.4 9.7 0.00 0.00 0.00 37 1022.6
20260503204655 20 172 8.0 12.9 0.00 0.00 0.00 39 1023.0
20260503204153 20 162 6.4 12.9 0.00 0.00 0.00 41 1022.9
20260503203649 20 291 1.6 4.8 0.00 0.00 0.00 36 1023.1
20260503203148 20 182 4.8 8.0 0.00 0.00 0.00 40 1023.0
20260503202644 20 191 6.4 11.3 0.00 0.00 0.00 42 1023.1
20260503202142 20 199 8.0 20.9 0.00 0.00 0.00 40 1023.4
20260503201640 20 191 8.0 9.7 0.00 0.00 0.00 40 1023.4
20260503201137 20 271 3.2 4.8 0.00 0.00 0.00 37 1023.5
20260503200633 20 224 0.0 14.5 0.00 0.00 0.00 37 1023.9
20260503200130 20 172 1.6 4.8 0.00 0.00 0.00 39 1023.7
20260503195627 20 176 3.2 11.3 0.00 0.00 0.00 38 1023.8
20260503195124 20 348 1.6 8.0 0.00 0.00 0.00 37 1024.2
20260503194621 19 172 6.4 16.1 0.00 0.00 0.00 36 1024.5
20260503194116 20 125 1.6 3.2 0.00 0.00 0.00 40 1024.4
20260503193613 20 189 6.4 8.0 0.00 0.00 0.00 38 1024.4
20260503193108 18 267 6.4 9.7 0.00 0.00 0.00 39 1024.5
20260503192604 20 173 8.0 12.9 0.00 0.00 0.00 39 1024.8
20260503192100 19 317 3.2 11.3 0.00 0.00 0.00 41 1024.7
20260503191557 19 170 4.8 9.7 0.00 0.00 0.00 39 1024.9
20260503191054 18 326 1.6 9.7 0.00 0.00 0.00 40 1024.9
20260503190551 18 209 4.8 17.7 0.00 0.00 0.00 42 1024.9
20260503190048 18 184 11.3 12.9 0.00 0.00 0.00 39 1025.1
20260503185545 18 306 1.6 4.8 0.00 0.00 0.00 38 1025.3
20260503185044 18 191 8.0 16.1 0.00 0.00 0.00 40 1025.1
20260503184540 18 187 6.4 11.3 0.00 0.00 0.00 50 1025.2
20260503184037 17 190 3.2 11.3 0.00 0.00 0.00 46 1025.5
20260503183534 17 200 11.3 14.5 0.00 0.00 0.00 43 1025.3
20260503183031 18 176 9.7 14.5 0.00 0.00 0.00 41 1025.4
20260503182530 17 177 11.3 12.9 0.00 0.00 0.00 43 1025.4
20260503182027 17 188 12.9 14.5 0.00 0.00 0.00 42 1025.6
20260503181524 17 61 3.2 8.0 0.00 0.00 0.00 47 1025.7
20260503181020 17 92 0.0 12.9 0.00 0.00 0.00 42 1025.9
20260503180518 17 172 6.4 9.7 0.00 0.00 0.00 43 1025.8
20260503180015 17 161 11.3 14.5 0.00 0.00 0.00 41 1025.9
20260503175512 17 189 9.7 11.3 0.00 0.00 0.00 43 1025.9
20260503175009 16 197 8.0 9.7 0.00 0.00 0.00 45 1026.2
20260503174507 17 184 3.2 8.0 0.00 0.00 0.00 46 1026.2
20260503174002 16 193 0.0 4.8 0.00 0.00 0.00 41 1026.1
20260503173457 16 160 3.2 11.3 0.00 0.00 0.00 44 1026.2
20260503172954 16 183 9.7 12.9 0.00 0.00 0.00 44 1026.4
20260503172452 16 194 12.9 14.5 0.00 0.00 0.00 41 1026.5
20260503171948 16 232 8.0 12.9 0.00 0.00 0.00 41 1026.6
20260503171445 16 173 8.0 14.5 0.00 0.00 0.00 41 1026.6
20260503170943 16 289 3.2 9.7 0.00 0.00 0.00 44 1026.6
20260503170438 16 37 1.6 3.2 0.00 0.00 0.00 43 1026.9
20260503150831 13 74 1.6 3.2 0.00 0.00 0.00 62 1027.7
20260503150327 13 81 0.0 3.2 0.00 0.00 0.00 64 1027.7
20260503140251 10 191 3.2 8.0 0.00 0.00 0.00 78 1027.9
20260503131221 8 189 3.2 4.8 0.00 0.00 0.00 87 1027.8
20260503130719 8 190 0.0 1.6 0.00 0.00 0.00 91 1027.8
20260503130216 7 190 0.0 3.2 0.00 0.00 0.00 91 1027.7
20260503120141 4 316 0.0 0.0 0.00 0.00 0.00 99 1027.4
20260503110609 3 314 1.6 1.6 0.00 0.00 0.00 99 1026.7
20260503110106 2 313 0.0 0.0 0.00 0.00 0.00 99 1026.5
20260503090456 3 313 1.6 1.6 0.00 0.00 0.00 98 1026.0
20260503081422 5 319 0.0 1.6 0.00 0.00 0.00 99 1025.9
20260503080920 5 320 0.0 0.0 0.00 0.00 0.00 99 1025.8
20260503080416 5 320 0.0 0.0 0.00 0.00 0.00 98 1025.6
20260503072852 5 321 0.0 0.0 0.00 0.00 0.00 98 1025.5
20260503072349 5 320 0.0 0.0 0.00 0.00 0.00 98 1025.4
20260503071845 5 321 0.0 0.0 0.00 0.00 0.00 97 1025.6
20260503071343 5 321 0.0 0.0 0.00 0.00 0.00 97 1025.6
20260503070839 5 320 0.0 0.0 0.00 0.00 0.00 97 1025.5
20260503070337 6 321 0.0 0.0 0.00 0.00 0.00 97 1025.4
20260503060256 6 328 1.6 3.2 0.00 0.00 0.00 95 1025.5
20260503054743 6 326 1.6 1.6 0.00 0.00 0.00 96 1025.5
20260503054240 6 314 1.6 1.6 0.00 0.00 0.00 96 1025.5
20260503053738 6 308 1.6 3.2 0.00 0.00 0.00 97 1025.4
20260503053237 6 335 0.0 0.0 0.00 0.00 0.00 97 1025.4
20260503052732 6 335 0.0 0.0 0.00 0.00 0.00 97 1025.4
20260503052229 6 335 0.0 0.0 0.00 0.00 0.00 97 1025.4
20260503051724 6 335 0.0 0.0 0.00 0.00 0.00 96 1025.4
20260503051222 6 335 0.0 0.0 0.00 0.00 0.00 96 1025.3
20260503050719 6 335 0.0 0.0 0.00 0.00 0.00 96 1025.3
20260503050215 6 336 0.0 0.0 0.00 0.00 0.00 95 1025.3
20260503045713 6 331 1.6 1.6 0.00 0.00 0.00 95 1025.1
20260503045210 6 314 1.6 1.6 0.00 0.00 0.00 95 1025.1
20260503044707 6 311 0.0 3.2 0.00 0.00 0.00 95 1025.1
20260503044204 6 309 1.6 1.6 0.00 0.00 0.00 95 1025.2
20260503043700 6 313 0.0 1.6 0.00 0.00 0.00 95 1024.9
20260503043158 6 309 1.6 1.6 0.00 0.00 0.00 95 1025.1
20260503042654 7 299 0.0 3.2 0.00 0.00 0.00 95 1024.9
20260503042150 7 301 1.6 3.2 0.00 0.00 0.00 94 1024.9